Showing default

IRIDE-MS2-HEO-6, 64576

Orbit data source: Space-Track

IRIDE-MS2-HEO-6, 64576 is an Italian payload satellite in SSO that was launched on Mon, 23 Jun 2025 UTC via an FALCON 9 launch vehicle from the Air Force Western Test Range (AFWTR). Payload-class satellites include a variety of spacecraft equipped with specific instruments for various scientific and technological missions. These include communications satellites like Starlink; space stations such as the ISS; scientific satellites like the Hubble; Earth observation satellites from companies like Planet Labs, Umbra, and HawkEye 360; GPS; miniature CubeSats for education and research; and military/defense satellites.

Loading next visibility...
Identifier
64576, 2025-135BA
Orbit
SSO
Country
Flag of ITIT
Related business
Manufacturer
ArgoTec
Mission
Operational Civil Imaging
Bus & Motor
HAWK, Unknown motor
Mass
65 kg wet, 65 kg dry
Launch date (UTC)
2025-06-23 (1 year ago)
Launch vehicle
FALCON 9
Launch site
Air Force Western Test Range (AFWTR)
Object type
Payload
Rocket body
Debris
Shape & HBR
Box + 2 Pan, 3.0 m
Radar Cross Section
0.683 m², Medium (>0.1 m² and < 1m²)

Expand to show TLE details & history
Last TLE update: 9 hours ago

TLE from 9 hours ago
0 IRIDE-MS2-HEO-6
1 64576U 25135BA  26171.45805229  .00001472  00000-0  15086-3 0  9993
2 64576  97.7731 285.6159 0000899  48.2386 311.8909 14.91975745 54379
Epoch: 2026-06-20T10:59Z
TLE epoch observation values (Epoch: 2026-06-20T10:59:35.717Z)
Latitude
-0.00011°
Longitude
-147.9553°
Altitude
594.399 km
Speed
7.563 km/s
True Right ascension
19h 02m 27s
True Declination
0° 00' 00"
Sunlit
Object was in full shadow at epoch
Visualization orbit readout
Latitude
Unknown
Longitude
Unknown
Altitude
Unknown
Speed
Unknown
Apparent Right ascension
Unknown
Apparent Declination
Unknown
Sunlit
N/A
Visualization observer readout
Local Sidereal Time
07:20:33
Azimuth
Unknown
Elevation
Unknown
Doppler factor
Unknown
Orbital elements
Apogee altitude
589.421 km
Perigee altitude
588.168 km
Semi-major axis
6,966.932 km
Eccentricity
0.00009
Inclination
97.7731°
RAAN
285.6159°
Arg. of periapsis
48.2386°
True anomaly
311.88323°
Mean anomaly
311.8909°
Eccentric anomaly
311.88707°
Mean motion
3.73234 °/min
Orbital period
96.45 mins
BSTAR
0.00015086
Loading maneuver chart data...
Computing Atmospheric mass density...
Loading historical data...
Loading historical data...
Loading historical data...
Loading historical data...
Loading historical data...
Loading historical data...
Loading historical data...

Documentation

Showing up to 5 results
|